| time (UTC) | temp F | wind direction | speed knots | gust knots | rain 1hr in | rain 24hr in | rain mn in | humidity % | barometer mb |
| 20260906181011 | 77 | 37 | 0.0 | 0.9 | 0.00 | 0.00 | 0.00 | 41 | 1018.3 |
| 20260906180511 | 77 | 60 | 0.9 | 0.9 | 0.00 | 0.00 | 0.00 | 42 | 1018.2 |
| 20260906180011 | 78 | 101 | 0.0 | 0.9 | 0.00 | 0.00 | 0.00 | 44 | 1018.1 |
| 20260906175511 | 78 | 54 | 2.6 | 0.9 | 0.00 | 0.00 | 0.00 | 50 | 1018.0 |
| 20260906175011 | 79 | 63 | 2.6 | 0.9 | 0.00 | 0.00 | 0.00 | 52 | 1017.9 |
| 20260906174511 | 80 | 83 | 1.7 | 0.0 | 0.00 | 0.00 | 0.00 | 56 | 1017.9 |
| 20260906173511 | 80 | 167 | 0.0 | 0.9 | 0.00 | 0.00 | 0.00 | 57 | 1017.6 |
| 20260906172512 | 80 | 231 | 0.9 | 0.9 | 0.00 | 0.00 | 0.00 | 56 | 1018.1 |
| 20260906172011 | 80 | 103 | 0.0 | 0.9 | 0.00 | 0.00 | 0.00 | 55 | 1018.1 |
| 20260906171511 | 80 | 65 | 0.9 | 0.9 | 0.00 | 0.00 | 0.00 | 56 | 1017.9 |
| 20260906170512 | 81 | 160 | 0.0 | 0.9 | 0.00 | 0.00 | 0.00 | 59 | 1018.2 |
| 20260906170011 | 81 | 181 | 5.2 | 0.9 | 0.00 | 0.00 | 0.00 | 58 | 1018.3 |
| 20260906165511 | 81 | 184 | 3.5 | 0.9 | 0.00 | 0.01 | 0.00 | 57 | 1018.4 |
| 20260906165011 | 80 | 160 | 2.6 | 0.9 | 0.00 | 0.01 | 0.00 | 53 | 1018.6 |
| 20260906164511 | 80 | 232 | 4.3 | 0.9 | 0.00 | 0.01 | 0.00 | 55 | 1018.7 |
| 20260906164011 | 80 | 180 | 1.7 | 0.9 | 0.00 | 0.01 | 0.00 | 56 | 1018.6 |
| 20260906163511 | 80 | 63 | 1.7 | 0.9 | 0.00 | 0.01 | 0.00 | 54 | 1018.6 |
| 20260906162511 | 80 | 171 | 3.5 | 0.9 | 0.00 | 0.01 | 0.00 | 54 | 1018.3 |
| 20260906161011 | 79 | 171 | 7.0 | 0.9 | 0.00 | 0.01 | 0.00 | 47 | 1018.0 |
| 20260906160011 | 78 | 139 | 0.0 | 0.9 | 0.00 | 0.01 | 0.00 | 46 | 1017.8 |
| 20260906155511 | 78 | 171 | 6.1 | 0.9 | 0.00 | 0.01 | 0.00 | 44 | 1017.9 |
| 20260906155011 | 78 | 207 | 2.6 | 0.9 | 0.00 | 0.01 | 0.00 | 44 | 1017.8 |
| 20260906154511 | 77 | 131 | 0.0 | 0.9 | 0.00 | 0.01 | 0.00 | 41 | 1017.7 |
| 20260906154010 | 77 | 95 | 0.0 | 0.0 | 0.00 | 0.01 | 0.00 | 42 | 1017.6 |
| 20260906153510 | 77 | 146 | 0.9 | 0.9 | 0.00 | 0.01 | 0.00 | 39 | 1017.6 |
| 20260906153010 | 76 | 118 | 0.0 | 0.9 | 0.00 | 0.01 | 0.00 | 37 | 1017.7 |
| 20260906152010 | 76 | 158 | 6.1 | 0.9 | 0.00 | 0.01 | 0.00 | 34 | 1017.8 |
| 20260906151510 | 76 | 250 | 0.9 | 0.9 | 0.00 | 0.01 | 0.00 | 35 | 1018.0 |
| 20260906151010 | 76 | 83 | 1.7 | 0.9 | 0.00 | 0.01 | 0.00 | 35 | 1017.1 |
| 20260906150511 | 76 | 95 | 0.0 | 0.9 | 0.00 | 0.01 | 0.00 | 34 | 1017.1 |
| 20260906150010 | 75 | 169 | 2.6 | 0.9 | 0.00 | 0.01 | 0.00 | 32 | 1017.1 |
| 20260906145510 | 75 | 194 | 8.7 | 0.9 | 0.00 | 0.01 | 0.00 | 31 | 1017.1 |
| 20260906145010 | 75 | 207 | 1.7 | 0.9 | 0.00 | 0.01 | 0.00 | 32 | 1017.1 |
| 20260906144510 | 75 | 144 | 0.0 | 0.9 | 0.00 | 0.01 | 0.00 | 30 | 1017.2 |
| 20260906144011 | 75 | 75 | 2.6 | 0.9 | 0.00 | 0.01 | 0.00 | 31 | 1017.2 |
| 20260906143510 | 75 | 203 | 1.7 | 0.9 | 0.00 | 0.01 | 0.00 | 29 | 1017.3 |
| 20260906143010 | 75 | 156 | 0.0 | 0.9 | 0.00 | 0.01 | 0.00 | 30 | 1017.4 |
| 20260906142510 | 74 | 210 | 1.7 | 0.9 | 0.00 | 0.01 | 0.00 | 29 | 1017.4 |
| 20260906142010 | 74 | 171 | 0.0 | 0.9 | 0.00 | 0.01 | 0.00 | 28 | 1017.4 |
| 20260906141510 | 74 | 221 | 3.5 | 0.9 | 0.00 | 0.01 | 0.00 | 30 | 1017.4 |
| 20260906141010 | 74 | 104 | 0.9 | 0.9 | 0.00 | 0.01 | 0.00 | 28 | 1017.4 |
| 20260906140510 | 74 | 224 | 4.3 | 0.9 | 0.00 | 0.01 | 0.00 | 28 | 1017.4 |
| 20260906140010 | 74 | 176 | 0.9 | 0.9 | 0.00 | 0.01 | 0.00 | 29 | 1017.4 |
| 20260906135510 | 74 | 166 | 0.0 | 0.9 | 0.00 | 0.01 | 0.00 | 28 | 1017.4 |
| 20260906134510 | 74 | 111 | 1.7 | 0.0 | 0.00 | 0.01 | 0.00 | 28 | 1017.4 |
| 20260906134010 | 73 | 248 | 0.0 | 0.0 | 0.00 | 0.01 | 0.00 | 28 | 1017.5 |
| 20260906133510 | 73 | 127 | 0.0 | 0.0 | 0.00 | 0.01 | 0.00 | 27 | 1017.4 |
| 20260906132510 | 73 | 84 | 0.0 | 0.0 | 0.00 | 0.01 | 0.00 | 27 | 1017.4 |
| 20260906132011 | 72 | 191 | 0.0 | 0.0 | 0.00 | 0.01 | 0.00 | 28 | 1017.4 |
| 20260906131010 | 72 | 161 | 0.0 | 0.0 | 0.00 | 0.01 | 0.00 | 28 | 1017.4 |
| 20260906130510 | 72 | 134 | 0.0 | 0.0 | 0.00 | 0.01 | 0.00 | 28 | 1017.4 |
| 20260906125010 | 71 | 152 | 0.0 | 0.0 | 0.00 | 0.01 | 0.00 | 28 | 1017.5 |
| 20260906124510 | 71 | 165 | 0.0 | 0.0 | 0.00 | 0.01 | 0.00 | 29 | 1017.5 |
| 20260906124010 | 71 | 128 | 0.0 | 0.9 | 0.00 | 0.01 | 0.00 | 29 | 1017.4 |
| 20260906123511 | 71 | 150 | 0.0 | 0.9 | 0.00 | 0.01 | 0.00 | 29 | 1017.2 |
| 20260906122510 | 70 | 84 | 0.0 | 0.0 | 0.00 | 0.01 | 0.00 | 29 | 1017.1 |
| 20260906122010 | 70 | 130 | 0.0 | 0.0 | 0.00 | 0.01 | 0.00 | 29 | 1017.0 |
| 20260906121010 | 70 | 148 | 0.0 | 0.9 | 0.00 | 0.01 | 0.00 | 29 | 1017.0 |
| 20260906120510 | 70 | 178 | 0.0 | 0.9 | 0.00 | 0.01 | 0.00 | 29 | 1016.9 |
| 20260906120012 | 70 | 165 | 2.6 | 0.0 | 0.00 | 0.01 | 0.00 | 29 | 1016.8 |
| 20260906115511 | 70 | 158 | 0.9 | 0.0 | 0.00 | 0.01 | 0.00 | 29 | 1016.7 |
| 20260906115011 | 70 | 177 | 1.7 | 0.0 | 0.00 | 0.01 | 0.00 | 29 | 1016.6 |
| 20260906114010 | 70 | 178 | 3.5 | 0.0 | 0.00 | 0.01 | 0.00 | 28 | 1016.6 |
| 20260906113510 | 70 | 200 | 0.0 | 0.0 | 0.00 | 0.01 | 0.00 | 28 | 1016.6 |
| 20260906112510 | 71 | 173 | 0.9 | 0.0 | 0.00 | 0.01 | 0.00 | 28 | 1016.6 |
| 20260906112010 | 71 | 174 | 0.0 | 0.0 | 0.00 | 0.01 | 0.00 | 28 | 1016.5 |
| 20260906111510 | 71 | 94 | 0.0 | 0.0 | 0.00 | 0.01 | 0.00 | 28 | 1016.5 |
| 20260906111011 | 71 | 70 | 1.7 | 0.0 | 0.00 | 0.01 | 0.00 | 28 | 1016.5 |
| 20260906110511 | 71 | 118 | 0.0 | 0.0 | 0.00 | 0.01 | 0.00 | 28 | 1016.4 |
| 20260906110011 | 71 | 54 | 0.0 | 0.9 | 0.00 | 0.01 | 0.00 | 28 | 1016.5 |
| 20260906105510 | 71 | 64 | 0.0 | 0.9 | 0.00 | 0.01 | 0.00 | 28 | 1016.5 |
| 20260906105010 | 71 | 92 | 0.0 | 0.9 | 0.00 | 0.01 | 0.00 | 28 | 1016.5 |
| 20260906104011 | 71 | 114 | 0.0 | 0.0 | 0.00 | 0.01 | 0.00 | 28 | 1016.6 |
| 20260906103510 | 71 | 341 | 0.0 | 0.0 | 0.00 | 0.01 | 0.00 | 28 | 1016.7 |
| 20260906103011 | 71 | 65 | 0.0 | 0.0 | 0.00 | 0.01 | 0.00 | 28 | 1016.7 |
| 20260906102511 | 71 | 108 | 0.9 | 0.0 | 0.00 | 0.01 | 0.00 | 28 | 1016.8 |
| 20260906102010 | 71 | 86 | 0.0 | 0.0 | 0.00 | 0.01 | 0.00 | 28 | 1016.8 |
| 20260906101511 | 71 | 168 | 0.0 | 0.0 | 0.00 | 0.01 | 0.00 | 29 | 1016.8 |
| 20260906101010 | 71 | 106 | 0.0 | 0.0 | 0.00 | 0.01 | 0.00 | 29 | 1016.9 |
| 20260906100511 | 71 | 96 | 0.0 | 0.0 | 0.00 | 0.01 | 0.00 | 29 | 1016.8 |
| 20260906100011 | 71 | 124 | 0.0 | 0.0 | 0.00 | 0.01 | 0.00 | 29 | 1016.7 |
| 20260906095511 | 71 | 222 | 0.0 | 0.0 | 0.00 | 0.01 | 0.00 | 29 | 1016.7 |
| 20260906095011 | 71 | 110 | 0.9 | 0.0 | 0.00 | 0.01 | 0.00 | 29 | 1016.6 |
| 20260906094011 | 71 | 184 | 0.0 | 0.0 | 0.00 | 0.01 | 0.00 | 29 | 1016.5 |
| 20260906093511 | 71 | 109 | 0.0 | 0.0 | 0.00 | 0.01 | 0.00 | 29 | 1016.5 |
| 20260906092011 | 71 | 86 | 2.6 | 0.0 | 0.00 | 0.01 | 0.00 | 29 | 1016.4 |
| 20260906091511 | 71 | 95 | 0.0 | 0.0 | 0.00 | 0.01 | 0.00 | 29 | 1016.5 |
| 20260906091011 | 71 | 71 | 0.0 | 0.0 | 0.00 | 0.01 | 0.00 | 29 | 1016.4 |
| 20260906090510 | 71 | 56 | 1.7 | 0.0 | 0.00 | 0.01 | 0.00 | 29 | 1016.4 |
| 20260906085511 | 71 | 101 | 0.0 | 0.0 | 0.00 | 0.01 | 0.00 | 28 | 1016.1 |
| 20260906085011 | 71 | 94 | 1.7 | 0.0 | 0.00 | 0.01 | 0.00 | 28 | 1016.1 |
| 20260906084511 | 72 | 138 | 0.0 | 0.0 | 0.00 | 0.01 | 0.00 | 28 | 1016.1 |
| 20260906084011 | 72 | 57 | 0.0 | 0.0 | 0.00 | 0.01 | 0.00 | 28 | 1016.1 |
| 20260906083511 | 72 | 75 | 1.7 | 0.0 | 0.00 | 0.01 | 0.00 | 28 | 1016.1 |
| 20260906083011 | 72 | 53 | 0.0 | 0.0 | 0.00 | 0.01 | 0.00 | 28 | 1016.2 |
| 20260906082511 | 72 | 111 | 1.7 | 0.0 | 0.00 | 0.01 | 0.00 | 28 | 1016.1 |
| 20260906082011 | 72 | 121 | 0.0 | 0.0 | 0.00 | 0.01 | 0.00 | 28 | 1016.1 |
| 20260906081511 | 72 | 53 | 0.0 | 0.0 | 0.00 | 0.01 | 0.00 | 28 | 1016.1 |
| 20260906081011 | 72 | 113 | 0.0 | 0.0 | 0.00 | 0.01 | 0.00 | 28 | 1016.1 |
| 20260906080511 | 72 | 151 | 0.0 | 0.0 | 0.00 | 0.01 | 0.00 | 28 | 1016.1 |
| 20260906075511 | 72 | 259 | 0.0 | 0.0 | 0.00 | 0.01 | 0.00 | 28 | 1016.1 |
| 20260906075011 | 72 | 86 | 0.0 | 0.0 | 0.00 | 0.01 | 0.00 | 28 | 1016.0 |
| 20260906074511 | 72 | 64 | 2.6 | 0.0 | 0.00 | 0.01 | 0.00 | 28 | 1016.1 |
| 20260906074012 | 72 | 81 | 0.0 | 0.0 | 0.00 | 0.01 | 0.00 | 28 | 1016.0 |
| 20260906073011 | 72 | 149 | 0.0 | 0.0 | 0.00 | 0.01 | 0.00 | 28 | 1016.1 |
| 20260906072011 | 72 | 84 | 0.0 | 0.0 | 0.00 | 0.01 | 0.00 | 28 | 1016.0 |
| 20260906071512 | 72 | 160 | 0.0 | 0.0 | 0.00 | 0.01 | 0.00 | 28 | 1016.0 |
| 20260906071011 | 72 | 63 | 0.0 | 0.0 | 0.00 | 0.01 | 0.00 | 28 | 1016.0 |
| 20260906070511 | 73 | 68 | 1.7 | 0.9 | 0.00 | 0.01 | 0.00 | 28 | 1016.0 |
| 20260906070011 | 73 | 113 | 0.0 | 0.0 | 0.00 | 0.01 | 0.00 | 28 | 1016.0 |
| 20260906065511 | 73 | 58 | 0.0 | 0.0 | 0.00 | 0.01 | 0.00 | 28 | 1016.1 |
| 20260906064511 | 73 | 113 | 0.0 | 0.9 | 0.00 | 0.01 | 0.00 | 28 | 1017.2 |
| 20260906064010 | 73 | 72 | 0.0 | 0.9 | 0.00 | 0.01 | 0.00 | 28 | 1017.2 |
| 20260906063510 | 73 | 166 | 0.0 | 0.0 | 0.00 | 0.01 | 0.00 | 28 | 1017.2 |
| 20260906063010 | 73 | 93 | 0.0 | 0.9 | 0.00 | 0.01 | 0.00 | 28 | 1017.2 |
| 20260906062510 | 73 | 116 | 0.0 | 0.9 | 0.00 | 0.01 | 0.00 | 28 | 1017.2 |
| 20260906062011 | 73 | 71 | 1.7 | 0.9 | 0.00 | 0.01 | 0.00 | 28 | 1017.2 |
| 20260906061510 | 73 | 79 | 3.5 | 0.9 | 0.00 | 0.01 | 0.00 | 28 | 1017.2 |
| 20260906061010 | 73 | 94 | 0.0 | 0.9 | 0.00 | 0.01 | 0.00 | 28 | 1017.1 |
| 20260906060510 | 73 | 95 | 0.0 | 0.9 | 0.00 | 0.01 | 0.00 | 28 | 1017.1 |
| 20260906060010 | 73 | 67 | 0.0 | 0.0 | 0.00 | 0.01 | 0.00 | 28 | 1017.1 |
| 20260906055510 | 74 | 57 | 0.0 | 0.0 | 0.00 | 0.01 | 0.00 | 28 | 1017.2 |
| 20260906055010 | 74 | 101 | 0.0 | 0.0 | 0.00 | 0.01 | 0.00 | 28 | 1017.2 |
| 20260906054510 | 74 | 81 | 5.2 | 0.9 | 0.00 | 0.01 | 0.00 | 28 | 1017.2 |
| 20260906054010 | 74 | 82 | 0.0 | 0.0 | 0.00 | 0.01 | 0.00 | 28 | 1017.2 |
| 20260906053510 | 74 | 63 | 0.0 | 0.0 | 0.00 | 0.01 | 0.00 | 28 | 1017.2 |
| 20260906053010 | 74 | 82 | 0.0 | 0.0 | 0.00 | 0.01 | 0.00 | 28 | 1017.0 |
| 20260906052510 | 74 | 67 | 0.0 | 0.0 | 0.00 | 0.01 | 0.00 | 28 | 1017.0 |
| 20260906052010 | 74 | 170 | 0.0 | 0.9 | 0.00 | 0.01 | 0.00 | 28 | 1017.1 |
| 20260906051510 | 74 | 56 | 0.0 | 0.0 | 0.00 | 0.01 | 0.00 | 28 | 1017.1 |
| 20260906051010 | 74 | 132 | 0.0 | 0.0 | 0.00 | 0.01 | 0.00 | 28 | 1017.2 |
| 20260906050510 | 74 | 91 | 0.0 | 0.0 | 0.00 | 0.01 | 0.00 | 28 | 1017.1 |
| 20260906050010 | 74 | 91 | 0.0 | 0.0 | 0.00 | 0.01 | 0.00 | 28 | 1017.2 |
| 20260906045510 | 74 | 77 | 0.0 | 0.9 | 0.00 | 0.01 | 0.01 | 28 | 1017.1 |
| 20260906045010 | 74 | 64 | 0.0 | 0.9 | 0.00 | 0.01 | 0.01 | 28 | 1017.1 |
| 20260906044512 | 74 | 128 | 0.0 | 0.0 | 0.00 | 0.01 | 0.01 | 28 | 1017.1 |
| 20260906044010 | 74 | 169 | 0.9 | 0.9 | 0.00 | 0.01 | 0.01 | 27 | 1017.1 |
| 20260906043510 | 74 | 105 | 0.0 | 0.9 | 0.00 | 0.01 | 0.01 | 27 | 1017.1 |
| 20260906042510 | 75 | 44 | 1.7 | 0.9 | 0.00 | 0.01 | 0.01 | 27 | 1017.2 |
| 20260906042010 | 75 | 318 | 0.0 | 0.9 | 0.00 | 0.01 | 0.01 | 27 | 1017.2 |
| 20260906041510 | 75 | 54 | 0.0 | 0.9 | 0.00 | 0.01 | 0.01 | 27 | 1017.3 |
| 20260906041010 | 75 | 48 | 1.7 | 0.9 | 0.00 | 0.01 | 0.01 | 27 | 1017.2 |
| 20260906040510 | 75 | 71 | 5.2 | 0.9 | 0.00 | 0.01 | 0.01 | 27 | 1017.1 |
| 20260906035511 | 75 | 68 | 2.6 | 0.0 | 0.00 | 0.01 | 0.01 | 27 | 1017.0 |
| 20260906035010 | 76 | 50 | 0.0 | 0.9 | 0.00 | 0.01 | 0.01 | 27 | 1016.9 |
| 20260906033010 | 76 | 71 | 3.5 | 0.9 | 0.00 | 0.01 | 0.01 | 27 | 1016.9 |
| 20260906032510 | 76 | 82 | 0.0 | 0.9 | 0.00 | 0.01 | 0.01 | 27 | 1016.8 |
| 20260906031510 | 77 | 105 | 0.9 | 0.0 | 0.00 | 0.01 | 0.01 | 27 | 1017.0 |
| 20260906031010 | 77 | 100 | 0.0 | 0.0 | 0.00 | 0.01 | 0.01 | 27 | 1016.9 |
| 20260906030510 | 77 | 51 | 0.0 | 0.0 | 0.00 | 0.01 | 0.01 | 27 | 1016.9 |
| 20260906030011 | 77 | 54 | 0.0 | 0.0 | 0.00 | 0.01 | 0.01 | 27 | 1016.9 |
| 20260906025510 | 77 | 68 | 0.0 | 0.0 | 0.00 | 0.01 | 0.01 | 28 | 1016.9 |
| 20260906025010 | 77 | 64 | 0.0 | 0.0 | 0.00 | 0.01 | 0.01 | 28 | 1016.9 |
| 20260906024011 | 78 | 90 | 0.0 | 0.0 | 0.00 | 0.01 | 0.01 | 29 | 1016.8 |
| 20260906023510 | 78 | 56 | 0.0 | 0.0 | 0.00 | 0.01 | 0.01 | 30 | 1016.8 |
| 20260906023011 | 78 | 85 | 0.0 | 0.0 | 0.00 | 0.01 | 0.01 | 31 | 1016.7 |
| 20260906022511 | 78 | 72 | 1.7 | 0.0 | 0.00 | 0.01 | 0.01 | 31 | 1016.6 |
| 20260906022013 | 78 | 74 | 0.0 | 0.0 | 0.00 | 0.01 | 0.01 | 32 | 1016.4 |
| 20260906021510 | 78 | 60 | 2.6 | 0.0 | 0.00 | 0.01 | 0.01 | 34 | 1016.4 |
| 20260906021011 | 79 | 67 | 0.9 | 0.0 | 0.00 | 0.01 | 0.01 | 35 | 1016.2 |
| 20260906020511 | 79 | 70 | 0.9 | 0.0 | 0.00 | 0.01 | 0.01 | 35 | 1016.1 |
| 20260906020011 | 79 | 67 | 0.0 | 0.0 | 0.00 | 0.01 | 0.01 | 36 | 1016.0 |
| 20260906015511 | 79 | 92 | 0.0 | 0.0 | 0.00 | 0.01 | 0.01 | 37 | 1016.1 |
| 20260906014511 | 79 | 104 | 0.0 | 0.0 | 0.00 | 0.01 | 0.01 | 39 | 1015.9 |
| 20260906014011 | 80 | 77 | 0.0 | 0.0 | 0.00 | 0.01 | 0.01 | 41 | 1015.9 |
| 20260906013510 | 80 | 86 | 1.7 | 0.0 | 0.00 | 0.01 | 0.01 | 43 | 1015.8 |
| 20260906013011 | 80 | 57 | 0.0 | 0.0 | 0.00 | 0.01 | 0.01 | 44 | 1015.8 |
| 20260906012510 | 80 | 114 | 2.6 | 0.0 | 0.00 | 0.01 | 0.01 | 44 | 1015.7 |
| 20260906012011 | 80 | 117 | 0.9 | 0.0 | 0.00 | 0.01 | 0.01 | 43 | 1015.6 |
| 20260906011511 | 80 | 51 | 0.0 | 0.9 | 0.00 | 0.01 | 0.01 | 43 | 1015.5 |
| 20260906011012 | 81 | 51 | 0.0 | 0.9 | 0.00 | 0.01 | 0.01 | 44 | 1015.4 |
| 20260906010511 | 81 | 93 | 1.7 | 0.9 | 0.00 | 0.01 | 0.01 | 44 | 1015.4 |
| 20260906005511 | 81 | 60 | 0.9 | 0.0 | 0.00 | 0.01 | 0.01 | 48 | 1015.4 |
| 20260906005012 | 82 | 82 | 0.0 | 0.0 | 0.00 | 0.01 | 0.01 | 50 | 1015.4 |
| 20260906004511 | 82 | 60 | 0.0 | 0.0 | 0.00 | 0.01 | 0.01 | 52 | 1015.5 |
| 20260906004011 | 82 | 51 | 0.0 | 0.0 | 0.00 | 0.01 | 0.01 | 53 | 1015.4 |
| 20260906003511 | 82 | 94 | 0.9 | 0.0 | 0.00 | 0.01 | 0.01 | 55 | 1015.3 |
| 20260906003011 | 83 | 101 | 0.0 | 0.0 | 0.00 | 0.01 | 0.01 | 57 | 1015.3 |
| 20260906002511 | 83 | 91 | 0.0 | 0.0 | 0.00 | 0.01 | 0.01 | 58 | 1015.3 |
| 20260906002011 | 83 | 77 | 0.0 | 0.0 | 0.00 | 0.01 | 0.01 | 61 | 1015.2 |
| 20260906001511 | 84 | 85 | 0.0 | 0.0 | 0.00 | 0.01 | 0.01 | 62 | 1015.2 |
| 20260906001011 | 84 | 105 | 0.0 | 0.0 | 0.00 | 0.01 | 0.01 | 63 | 1015.2 |
| 20260906000511 | 84 | 72 | 3.5 | 0.0 | 0.00 | 0.01 | 0.01 | 65 | 1015.2 |
| 20260906000011 | 85 | 152 | 0.0 | 0.0 | 0.00 | 0.01 | 0.01 | 66 | 1015.2 |
| 20260905235511 | 85 | 75 | 0.0 | 0.0 | 0.00 | 0.01 | 0.01 | 66 | 1015.3 |
| 20260905235011 | 85 | 197 | 0.0 | 0.0 | 0.00 | 0.01 | 0.01 | 67 | 1015.3 |
| 20260905234511 | 85 | 40 | 0.0 | 0.0 | 0.00 | 0.01 | 0.01 | 67 | 1015.2 |
| 20260905233512 | 85 | 103 | 0.0 | 0.0 | 0.00 | 0.01 | 0.01 | 67 | 1015.2 |
| 20260905232511 | 84 | 173 | 0.0 | 0.0 | 0.00 | 0.01 | 0.01 | 67 | 1015.2 |
| 20260905232011 | 84 | 129 | 0.0 | 0.0 | 0.00 | 0.01 | 0.01 | 68 | 1015.1 |
| 20260905231511 | 84 | 37 | 1.7 | 0.0 | 0.00 | 0.01 | 0.01 | 68 | 1015.1 |
| 20260905231011 | 84 | 86 | 0.0 | 0.9 | 0.00 | 0.01 | 0.01 | 68 | 1015.1 |
| 20260905230511 | 84 | 200 | 0.0 | 0.9 | 0.00 | 0.01 | 0.01 | 68 | 1015.1 |
| 20260905230011 | 85 | 116 | 1.7 | 0.0 | 0.00 | 0.01 | 0.01 | 68 | 1015.0 |
| 20260905225511 | 85 | 77 | 0.0 | 0.9 | 0.00 | 0.01 | 0.01 | 68 | 1015.0 |
| 20260905225011 | 85 | 122 | 0.0 | 0.9 | 0.00 | 0.01 | 0.01 | 68 | 1015.0 |
| 20260905224511 | 85 | 49 | 1.7 | 0.9 | 0.00 | 0.01 | 0.01 | 68 | 1015.1 |
| 20260905223511 | 85 | 31 | 0.0 | 0.9 | 0.00 | 0.01 | 0.01 | 68 | 1015.1 |
| 20260905223011 | 85 | 50 | 0.0 | 0.9 | 0.00 | 0.01 | 0.01 | 68 | 1015.0 |
| 20260905222511 | 85 | 84 | 6.1 | 0.9 | 0.00 | 0.01 | 0.01 | 67 | 1015.0 |
| 20260905222012 | 85 | 57 | 2.6 | 0.9 | 0.00 | 0.01 | 0.01 | 68 | 1015.0 |
| 20260905221511 | 84 | 44 | 0.9 | 0.0 | 0.00 | 0.01 | 0.01 | 68 | 1015.0 |
| 20260905221011 | 84 | 115 | 0.0 | 0.9 | 0.00 | 0.01 | 0.01 | 68 | 1014.8 |
| 20260905220511 | 84 | 79 | 4.3 | 0.9 | 0.00 | 0.01 | 0.01 | 68 | 1014.7 |
| 20260905220011 | 84 | 101 | 1.7 | 0.9 | 0.00 | 0.01 | 0.01 | 68 | 1014.8 |
| 20260905215511 | 84 | 76 | 2.6 | 0.9 | 0.00 | 0.01 | 0.01 | 68 | 1014.9 |
| 20260905215011 | 84 | 181 | 0.0 | 0.9 | 0.00 | 0.01 | 0.01 | 68 | 1014.9 |
| 20260905214511 | 84 | 101 | 3.5 | 0.9 | 0.00 | 0.01 | 0.01 | 68 | 1014.9 |
| 20260905214010 | 84 | 76 | 1.7 | 0.9 | 0.00 | 0.01 | 0.01 | 68 | 1014.9 |
| 20260905213510 | 84 | 129 | 0.9 | 0.9 | 0.00 | 0.01 | 0.01 | 68 | 1014.8 |
| 20260905213010 | 84 | 146 | 0.0 | 0.9 | 0.00 | 0.01 | 0.01 | 68 | 1014.8 |
| 20260905212510 | 84 | 82 | 0.0 | 0.9 | 0.00 | 0.01 | 0.01 | 67 | 1014.7 |
| 20260905212010 | 84 | 78 | 0.0 | 0.9 | 0.00 | 0.01 | 0.01 | 66 | 1014.7 |
| 20260905211010 | 84 | 94 | 0.9 | 0.0 | 0.00 | 0.01 | 0.01 | 66 | 1015.0 |
| 20260905210510 | 84 | 200 | 0.9 | 0.9 | 0.00 | 0.01 | 0.01 | 67 | 1014.9 |
| 20260905210010 | 83 | 101 | 3.5 | 0.9 | 0.00 | 0.01 | 0.01 | 67 | 1014.9 |
| 20260905205010 | 83 | 99 | 0.9 | 0.9 | 0.00 | 0.01 | 0.01 | 67 | 1014.9 |
| 20260905204510 | 83 | 68 | 2.6 | 0.9 | 0.00 | 0.01 | 0.01 | 67 | 1014.9 |
| 20260905204010 | 82 | 108 | 0.0 | 0.9 | 0.00 | 0.01 | 0.01 | 67 | 1015.0 |
| 20260905203010 | 82 | 60 | 1.7 | 0.9 | 0.00 | 0.01 | 0.01 | 68 | 1015.0 |
| 20260905202510 | 82 | 246 | 0.0 | 0.9 | 0.00 | 0.01 | 0.01 | 68 | 1014.9 |
| 20260905202010 | 82 | 46 | 7.0 | 0.9 | 0.00 | 0.01 | 0.01 | 68 | 1014.8 |
| 20260905201510 | 82 | 78 | 1.7 | 0.9 | 0.00 | 0.01 | 0.01 | 68 | 1014.9 |
| 20260905201011 | 82 | 79 | 1.7 | 0.9 | 0.00 | 0.01 | 0.01 | 68 | 1015.0 |
| 20260905200510 | 82 | 122 | 2.6 | 0.9 | 0.00 | 0.01 | 0.01 | 68 | 1015.2 |
| 20260905200010 | 82 | 61 | 0.0 | 0.0 | 0.00 | 0.01 | 0.01 | 69 | 1015.1 |
| 20260905195010 | 82 | 129 | 2.6 | 0.9 | 0.00 | 0.01 | 0.01 | 68 | 1015.2 |
| 20260905194510 | 82 | 117 | 0.0 | 0.9 | 0.00 | 0.01 | 0.01 | 68 | 1015.5 |
| 20260905193510 | 82 | 243 | 0.9 | 0.9 | 0.00 | 0.01 | 0.01 | 68 | 1015.7 |
| 20260905193010 | 82 | 221 | 0.9 | 0.9 | 0.00 | 0.01 | 0.01 | 68 | 1015.7 |
| 20260905191510 | 80 | 232 | 1.7 | 0.0 | 0.00 | 0.01 | 0.01 | 69 | 1016.1 |
| 20260905191011 | 79 | 214 | 2.6 | 0.9 | 0.00 | 0.01 | 0.01 | 68 | 1016.1 |
| 20260905190010 | 79 | 186 | 3.5 | 0.9 | 0.00 | 0.01 | 0.01 | 68 | 1016.0 |
| 20260905185510 | 78 | 226 | 4.3 | 0.9 | 0.00 | 0.01 | 0.01 | 68 | 1016.1 |
| 20260905185010 | 78 | 163 | 5.2 | 0.9 | 0.00 | 0.01 | 0.01 | 67 | 1016.0 |
| 20260905184510 | 78 | 197 | 6.1 | 0.9 | 0.00 | 0.01 | 0.01 | 68 | 1015.9 |
| 20260905183510 | 77 | 146 | 2.6 | 0.9 | 0.00 | 0.01 | 0.01 | 68 | 1015.8 |
| 20260905183011 | 77 | 171 | 2.6 | 0.9 | 0.00 | 0.01 | 0.01 | 67 | 1015.8 |
| 20260905182510 | 77 | 145 | 0.9 | 0.9 | 0.00 | 0.01 | 0.01 | 67 | 1015.8 |